Location: Central Falls
(41.8900°N, 71.3929°W)
Time: 04:25:15
(UTC+00:00)

Tiros 1 - Pass Details

Date: 10 December 2023
Orbit: 625 x 658 km, 48.4° (Epoch: 01 March)

Event Time Altitude Azimuth Distance (km) Brightness Sun altitude
Rises 08:03:34 0° 254° (WSW) 2,965 - -43.5°
Reaches altitude 10° 08:05:56 10° 258° (WSW) 2,060 - -43.0°
Maximum altitude 08:10:39 60° 339° (NNW) 752 - -42.2°
Drops below altitude 10° 08:15:23 10° 60° (ENE) 2,075 - -41.3°
Exits shadow 08:15:37 - 60° (ENE) 2,164 10.4 -41.3°
Sets 08:17:47 0° 64° (ENE) 2,989 11.3 -40.9°
